,,,PA_Meas_PMT16A,,PR_Meas_QMR101_102,,RH_Meas_QMH101,,SR_Meas_QMS101,,TA_Meas_QMH101,,GenWind,,GenWind,
date,time,status,PA,status,PR,status,RH,status,SR,status,TA,status,DirAvg,status,SpdAvg,
2010-01-26, 00:00:04,VALID,1005.42,VALID,0,VALID,92.0348,VALID,0,VALID,23.5655,VALID,5,VALID,0,
2010-01-26, 00:01:04,VALID,1005.41,VALID,0,VALID,92.0043,VALID,0,VALID,23.5266,VALID,5,VALID,0,
2010-01-26, 00:02:04,VALID,1005.41,VALID,0,VALID,92.0196,VALID,0,VALID,23.4877,VALID,5,VALID,0,
2010-01-26, 00:03:04,VALID,1005.39,VALID,0,VALID,92.0577,VALID,0,VALID,23.4487,VALID,5,VALID,0,
2010-01-26, 00:04:04,VALID,1005.42,VALID,0,VALID,92.0806,VALID,0,VALID,23.4116,VALID,5,VALID,0,
2010-01-26, 00:05:04,VALID,1005.37,VALID,0,VALID,92.1798,VALID,0,VALID,23.3904,VALID,5,VALID,0,
2010-01-26, 00:06:04,VALID,1005.35,VALID,0,VALID,92.2484,VALID,0,VALID,23.3904,VALID,5,VALID,0,
2010-01-26, 00:07:04,VALID,1005.35,VALID,0,VALID,92.3247,VALID,0.100563,VALID,23.3921,VALID,5,VALID,0,
2010-01-26, 00:08:04,VALID,1005.33,VALID,0,VALID,92.401,VALID,0.100563,VALID,23.3302,VALID,5,VALID,0,
2010-01-26, 00:09:04,VALID,1005.31,VALID,0,VALID,92.4239,VALID,0,VALID,23.332,VALID,5,VALID,0,
2010-01-26, 00:10:04,VALID,1005.31,VALID,0,VALID,92.4849,VALID,0,VALID,23.3107,VALID,5,VALID,0,
2010-01-26, 00:11:04,VALID,1005.3,VALID,0,VALID,92.546,VALID,0.100563,VALID,23.332,VALID,5,VALID,0,
2010-01-26, 00:12:04,VALID,1005.3,VALID,0,VALID,92.607,VALID,0.100563,VALID,23.3514,VALID,5,VALID,0,
2010-01-26, 00:13:04,VALID,1005.27,VALID,0,VALID,92.6604,VALID,0.100563,VALID,23.332,VALID,5,VALID,0,
2010-01-26, 00:14:04,VALID,1005.22,VALID,0,VALID,92.7062,VALID,0,VALID,23.3532,VALID,5,VALID,0,
2010-01-26, 00:15:04,VALID,1005.2,VALID,0,VALID,92.7367,VALID,0,VALID,23.3337,VALID,5,VALID,0,
2010-01-26, 00:16:04,VALID,1005.16,VALID,0,VALID,92.7824,VALID,0,VALID,23.2948,VALID,5,VALID,0,
2010-01-26, 00:17:04,VALID,1005.14,VALID,0,VALID,92.7748,VALID,0,VALID,23.2152,VALID,5,VALID,0.4125,
2010-01-26, 00:18:04,VALID,1005.1,VALID,0,VALID,92.7596,VALID,0,VALID,23.1975,VALID,5,VALID,0.291797,
2010-01-26, 00:19:04,VALID,1005.04,VALID,0,VALID,92.7519,VALID,0,VALID,23.1586,VALID,5,VALID,0.311328,
2010-01-26, 00:20:04,VALID,1004.98,VALID,0,VALID,92.7596,VALID,0,VALID,23.1197,VALID,5,VALID,0.166016,
2010-01-26, 00:21:04,VALID,1004.96,VALID,0,VALID,92.7977,VALID,0,VALID,23.1002,VALID,5,VALID,0,
2010-01-26, 00:22:04,VALID,1004.9,VALID,0,VALID,92.7977,VALID,0,VALID,23.0807,VALID,5,VALID,0,
2010-01-26, 00:23:04,VALID,1004.86,VALID,0,VALID,92.8358,VALID,0,VALID,23.0807,VALID,5,VALID,0,
2010-01-26, 00:24:04,VALID,1004.81,VALID,0,VALID,92.8816,VALID,0,VALID,23.1002,VALID,5,VALID,0,
2010-01-26, 00:25:04,VALID,1004.74,VALID,0,VALID,92.9426,VALID,0,VALID,23.1002,VALID,5,VALID,0,
2010-01-26, 00:26:04,VALID,1004.73,VALID,0,VALID,92.9808,VALID,0,VALID,23.1197,VALID,7,VALID,0,
2010-01-26, 00:27:04,VALID,1004.68,VALID,0,VALID,93.0342,VALID,0,VALID,23.1391,VALID,11,VALID,0,
2010-01-26, 00:28:04,VALID,1004.64,VALID,0,VALID,93.0723,VALID,0,VALID,23.1586,VALID,11,VALID,0,
2010-01-26, 00:29:04,VALID,1004.63,VALID,0,VALID,93.1334,VALID,0,VALID,23.1763,VALID,11,VALID,0,
2010-01-26, 00:30:04,VALID,1004.55,VALID,0,VALID,93.1486,VALID,0,VALID,23.1568,VALID,11,VALID,0,
2010-01-26, 00:31:04,VALID,1004.52,VALID,0,VALID,93.202,VALID,0,VALID,23.1391,VALID,11,VALID,0,
2010-01-26, 00:32:04,VALID,1004.42,VALID,0,VALID,93.1944,VALID,0,VALID,23.1798,VALID,14,VALID,0.444922,
2010-01-26, 00:33:04,VALID,1004.4,VALID,0,VALID,93.2325,VALID,0,VALID,23.1975,VALID,14,VALID,0.487109,
2010-01-26, 00:34:04,VALID,1004.37,VALID,0,VALID,93.2325,VALID,0,VALID,23.1957,VALID,25,VALID,0.691406,
2010-01-26, 00:35:04,VALID,1004.34,VALID,0,VALID,93.2707,VALID,0,VALID,23.2736,VALID,27,VALID,0.267578,
2010-01-26, 00:36:04,VALID,1004.33,VALID,0,VALID,93.3088,VALID,0,VALID,23.2931,VALID,27,VALID,0.291406,
2010-01-26, 00:37:04,VALID,1004.24,VALID,0,VALID,93.3165,VALID,0,VALID,23.2948,VALID,27,VALID,0.00117188,
2010-01-26, 00:38:04,VALID,1004.23,VALID,0,VALID,93.3241,VALID,0,VALID,23.2736,VALID,24,VALID,0.339453,
2010-01-26, 00:39:04,VALID,1004.17,VALID,0,VALID,93.3241,VALID,0,VALID,23.2948,VALID,29,VALID,0.869531,
2010-01-26, 00:40:04,VALID,1004.16,VALID,0,VALID,93.2936,VALID,0,VALID,23.3514,VALID,28,VALID,0.498828,
2010-01-26, 00:41:04,VALID,1004.11,VALID,0,VALID,93.2707,VALID,0,VALID,23.4311,VALID,23,VALID,0.461719,
2010-01-26, 00:42:04,VALID,1004.12,VALID,0,VALID,93.2859,VALID,0,VALID,23.4682,VALID,17,VALID,0.516016,
2010-01-26, 00:43:04,VALID,1004.14,VALID,0,VALID,93.2097,VALID,0,VALID,23.5673,VALID,285,VALID,0.420703,
2010-01-26, 00:44:04,VALID,1004.1,VALID,0,VALID,93.1486,VALID,0,VALID,23.6257,VALID,285,VALID,0.289453,
2010-01-26, 00:45:04,VALID,1004.11,VALID,0,VALID,93.0113,VALID,0,VALID,23.6646,VALID,10,VALID,0.461719,
2010-01-26, 00:46:04,VALID,1004.14,VALID,0,VALID,92.8358,VALID,0,VALID,23.7035,VALID,10,VALID,0.590234,
2010-01-26, 00:47:04,VALID,1004.13,VALID,0,VALID,92.607,VALID,0,VALID,23.7814,VALID,25,VALID,0.824609,
2010-01-26, 00:48:04,VALID,1004.15,VALID,0,VALID,92.3323,VALID,0,VALID,23.8203,VALID,25,VALID,0.965234,
2010-01-26, 00:49:04,VALID,1004.2,VALID,0,VALID,91.928,VALID,0,VALID,23.8787,VALID,342,VALID,0.480078,
2010-01-26, 00:50:04,VALID,1004.2,VALID,0,VALID,91.4245,VALID,0,VALID,23.8982,VALID,345,VALID,0.13125,
2010-01-26, 00:51:04,VALID,1004.19,VALID,0,VALID,90.9363,VALID,0,VALID,23.9177,VALID,344,VALID,1.15664,
2010-01-26, 00:52:04,VALID,1004.23,VALID,0,VALID,90.4556,VALID,0,VALID,23.9761,VALID,357,VALID,0.684766,
2010-01-26, 00:53:04,VALID,1004.22,VALID,0,VALID,89.9826,VALID,0,VALID,24.0363,VALID,3,VALID,1.35078,
2010-01-26, 00:54:04,VALID,1004.25,VALID,0,VALID,89.3647,VALID,0,VALID,24.1336,VALID,345,VALID,1.06914,
2010-01-26, 00:55:04,VALID,1004.23,VALID,0,VALID,89.0519,VALID,0,VALID,24.1513,VALID,354,VALID,0.536719,
2010-01-26, 00:56:04,VALID,1004.23,VALID,0,VALID,88.8154,VALID,0,VALID,24.1902,VALID,328,VALID,1.10391,
2010-01-26, 00:57:04,VALID,1004.25,VALID,0,VALID,88.5866,VALID,0,VALID,24.2486,VALID,323,VALID,0.622266,
2010-01-26, 00:58:04,VALID,1004.26,VALID,0,VALID,88.434,VALID,0,VALID,24.2468,VALID,349,VALID,0.631641,
2010-01-26, 00:59:04,VALID,1004.26,VALID,0,VALID,88.3501,VALID,0.100563,VALID,24.2662,VALID,343,VALID,0.457031,
2010-01-26, 01:00:04,VALID,1004.23,VALID,0,VALID,88.3653,VALID,0,VALID,24.2857,VALID,331,VALID,0.934375,
2010-01-26, 01:01:04,VALID,1004.21,VALID,0,VALID,88.4187,VALID,0.100563,VALID,24.2857,VALID,357,VALID,0.780078,
2010-01-26, 01:02:04,VALID,1004.22,VALID,0,VALID,88.3806,VALID,0.100563,VALID,24.307,VALID,345,VALID,0.736719,
2010-01-26, 01:03:04,VALID,1004.23,VALID,0,VALID,88.2585,VALID,0.100563,VALID,24.2662,VALID,342,VALID,1.025,
2010-01-26, 01:04:04,VALID,1004.2,VALID,0,VALID,88.1593,VALID,0.100563,VALID,24.2857,VALID,347,VALID,0.469141,
2010-01-26, 01:05:04,VALID,1004.18,VALID,0,VALID,88.1441,VALID,0,VALID,24.2857,VALID,347,VALID,0.509375,
2010-01-26, 01:06:04,VALID,1004.14,VALID,0,VALID,88.1441,VALID,0,VALID,24.2662,VALID,347,VALID,0.903516,
2010-01-26, 01:07:04,VALID,1004.11,VALID,0,VALID,88.0602,VALID,0,VALID,24.2857,VALID,21,VALID,0.673437,
2010-01-26, 01:08:04,VALID,1004.08,VALID,0,VALID,88.1059,VALID,0.100563,VALID,24.2662,VALID,350,VALID,0.251172,
2010-01-26, 01:09:04,VALID,1004.07,VALID,0,VALID,88.1212,VALID,0,VALID,24.2468,VALID,2,VALID,1.05781,
2010-01-26, 01:10:04,VALID,1004.04,VALID,0,VALID,88.0525,VALID,0.100563,VALID,24.2468,VALID,353,VALID,0.787891,
2010-01-26, 01:11:04,VALID,1003.98,VALID,0,VALID,88.0068,VALID,0,VALID,24.2273,VALID,297,VALID,0.425391,
2010-01-26, 01:12:04,VALID,1003.9,VALID,0,VALID,87.8923,VALID,0.100563,VALID,24.2662,VALID,346,VALID,1.36719,
2010-01-26, 01:13:04,VALID,1003.88,VALID,0,VALID,87.8008,VALID,0,VALID,24.2857,VALID,347,VALID,0.525,
2010-01-26, 01:14:04,VALID,1003.81,VALID,0,VALID,87.6787,VALID,0,VALID,24.2857,VALID,348,VALID,1.05273,
2010-01-26, 01:15:04,VALID,1003.71,VALID,0,VALID,87.6253,VALID,0,VALID,24.307,VALID,335,VALID,0.823047,
2010-01-26, 01:16:04,VALID,1003.7,VALID,0,VALID,87.5872,VALID,0,VALID,24.3265,VALID,342,VALID,0.596875,
2010-01-26, 01:17:04,VALID,1003.67,VALID,0,VALID,87.343,VALID,0,VALID,24.2857,VALID,348,VALID,0.791797,
2010-01-26, 01:18:04,VALID,1003.66,VALID,0,VALID,87.3125,VALID,0,VALID,24.3459,VALID,351,VALID,0.2375,
2010-01-26, 01:19:04,VALID,1003.67,VALID,0,VALID,87.3278,VALID,0,VALID,24.3052,VALID,353,VALID,0.601953,
2010-01-26, 01:20:04,VALID,1003.68,VALID,0,VALID,87.2668,VALID,0,VALID,24.3052,VALID,350,VALID,0.535937,
2010-01-26, 01:21:04,VALID,1003.68,VALID,0,VALID,87.2286,VALID,0,VALID,24.3246,VALID,277,VALID,0.247266,
2010-01-26, 01:22:04,VALID,1003.67,VALID,0,VALID,87.2668,VALID,0,VALID,24.3246,VALID,355,VALID,0.555078,
2010-01-26, 01:23:04,VALID,1003.66,VALID,0,VALID,87.0989,VALID,0,VALID,24.3441,VALID,350,VALID,0.914063,
2010-01-26, 01:24:04,VALID,1003.68,VALID,0,VALID,87.0303,VALID,0,VALID,24.3636,VALID,351,VALID,0.759766,
2010-01-26, 01:25:04,VALID,1003.67,VALID,0,VALID,86.809,VALID,0.100563,VALID,24.3422,VALID,349,VALID,0.692578,
2010-01-26, 01:26:04,VALID,1003.66,VALID,0,VALID,86.7099,VALID,0.100563,VALID,24.383,VALID,8,VALID,0.946875,
2010-01-26, 01:27:04,VALID,1003.65,VALID,0,VALID,86.8395,VALID,0,VALID,24.4025,VALID,2,VALID,0.0277344,
2010-01-26, 01:28:04,VALID,1003.64,VALID,0,VALID,86.9158,VALID,0,VALID,24.383,VALID,339,VALID,0.075,
2010-01-26, 01:29:04,VALID,1003.65,VALID,0,VALID,86.9769,VALID,0,VALID,24.3459,VALID,339,VALID,0.132031,
2010-01-26, 01:30:04,VALID,1003.64,VALID,0,VALID,87.1218,VALID,0,VALID,24.3265,VALID,308,VALID,0.572656,
2010-01-26, 01:31:04,VALID,1003.62,VALID,0,VALID,87.1676,VALID,0,VALID,24.2857,VALID,332,VALID,0.605078,
2010-01-26, 01:32:04,VALID,1003.64,VALID,0,VALID,87.1294,VALID,0,VALID,24.2875,VALID,319,VALID,1.09297,
2010-01-26, 01:33:04,VALID,1003.61,VALID,0,VALID,87.076,VALID,0,VALID,24.2875,VALID,359,VALID,0.395703,
2010-01-26, 01:34:04,VALID,1003.57,VALID,0,VALID,87.0608,VALID,0,VALID,24.2875,VALID,342,VALID,0.586328,
2010-01-26, 01:35:04,VALID,1003.55,VALID,0,VALID,87.015,VALID,0,VALID,24.2875,VALID,342,VALID,0.498437,
2010-01-26, 01:36:04,VALID,1003.55,VALID,0,VALID,86.9692,VALID,0,VALID,24.307,VALID,348,VALID,0.938672,
2010-01-26, 01:37:04,VALID,1003.54,VALID,0,VALID,86.8777,VALID,0,VALID,24.307,VALID,340,VALID,0.6875,
2010-01-26, 01:38:04,VALID,1003.47,VALID,0,VALID,86.9006,VALID,0,VALID,24.307,VALID,357,VALID,0.825781,
2010-01-26, 01:39:04,VALID,1003.51,VALID,0,VALID,86.8929,VALID,0,VALID,24.2857,VALID,355,VALID,0.497656,
2010-01-26, 01:40:04,VALID,1003.48,VALID,0,VALID,87.0074,VALID,0,VALID,24.2875,VALID,336,VALID,0.501562,
2010-01-26, 01:41:04,VALID,1003.46,VALID,0,VALID,87.1066,VALID,0,VALID,24.2681,VALID,330,VALID,0.407422,
2010-01-26, 01:42:04,VALID,1003.49,VALID,0,VALID,87.1905,VALID,0,VALID,24.2486,VALID,1,VALID,0.351953,
2010-01-26, 01:43:04,VALID,1003.5,VALID,0,VALID,87.2515,VALID,0,VALID,24.2291,VALID,346,VALID,0.599609,
2010-01-26, 01:44:04,VALID,1003.5,VALID,0,VALID,87.3888,VALID,0,VALID,24.2078,VALID,343,VALID,0.273438,
2010-01-26, 01:45:04,VALID,1003.53,VALID,0,VALID,87.4651,VALID,0.100563,VALID,24.1884,VALID,343,VALID,0.210547,
2010-01-26, 01:46:04,VALID,1003.53,VALID,0,VALID,87.5567,VALID,0.100563,VALID,24.1689,VALID,346,VALID,0.139844,
2010-01-26, 01:47:04,VALID,1003.52,VALID,0,VALID,87.6787,VALID,0,VALID,24.13,VALID,289,VALID,0.386719,
2010-01-26, 01:48:04,VALID,1003.52,VALID,0,VALID,87.7855,VALID,0,VALID,24.1513,VALID,323,VALID,0.401953,
2010-01-26, 01:49:04,VALID,1003.5,VALID,0,VALID,87.8694,VALID,0,VALID,24.1105,VALID,327,VALID,0,
2010-01-26, 01:50:04,VALID,1003.5,VALID,0,VALID,87.9457,VALID,0,VALID,24.0716,VALID,313,VALID,0.161328,
2010-01-26, 01:51:04,VALID,1003.51,VALID,0,VALID,88.0296,VALID,0,VALID,24.0716,VALID,289,VALID,0.538281,
2010-01-26, 01:52:04,VALID,1003.51,VALID,0,VALID,88.0754,VALID,0,VALID,24.0734,VALID,289,VALID,0.0507813,
2010-01-26, 01:53:04,VALID,1003.52,VALID,0,VALID,88.1136,VALID,0,VALID,24.0521,VALID,289,VALID,0.0183594,
2010-01-26, 01:54:04,VALID,1003.5,VALID,0,VALID,88.2051,VALID,0,VALID,24.0326,VALID,289,VALID,0.00117188,
2010-01-26, 01:55:04,VALID,1003.52,VALID,0,VALID,88.4264,VALID,0,VALID,23.9937,VALID,289,VALID,0.144531,
2010-01-26, 01:56:04,VALID,1003.52,VALID,0,VALID,88.6628,VALID,0,VALID,23.9742,VALID,289,VALID,0,
2010-01-26, 01:57:04,VALID,1003.53,VALID,0,VALID,88.7773,VALID,0.100563,VALID,23.9353,VALID,289,VALID,0,
2010-01-26, 01:58:04,VALID,1003.56,VALID,0,VALID,88.9375,VALID,0,VALID,23.8982,VALID,289,VALID,0,
2010-01-26, 01:59:04,VALID,1003.55,VALID,0,VALID,89.1816,VALID,0,VALID,23.838,VALID,289,VALID,0,
2010-01-26, 02:00:04,VALID,1003.55,VALID,0,VALID,89.441,VALID,0,VALID,23.7991,VALID,289,VALID,0,
2010-01-26, 02:01:04,VALID,1003.55,VALID,0,VALID,89.708,VALID,0,VALID,23.7389,VALID,289,VALID,0,
2010-01-26, 02:02:04,VALID,1003.55,VALID,0,VALID,89.9216,VALID,0,VALID,23.7212,VALID,289,VALID,0,
2010-01-26, 02:03:04,VALID,1003.55,VALID,0,VALID,90.1657,VALID,0,VALID,23.6823,VALID,289,VALID,0,
2010-01-26, 02:04:04,VALID,1003.54,VALID,0,VALID,90.387,VALID,0,VALID,23.6841,VALID,289,VALID,0.0179687,
2010-01-26, 02:05:04,VALID,1003.55,VALID,0,VALID,90.593,VALID,0,VALID,23.6434,VALID,289,VALID,0.766016,
2010-01-26, 02:06:04,VALID,1003.55,VALID,0,VALID,90.7074,VALID,0,VALID,23.6434,VALID,289,VALID,0.669141,
2010-01-26, 02:07:04,VALID,1003.59,VALID,0,VALID,90.7455,VALID,0,VALID,23.6239,VALID,289,VALID,0,
2010-01-26, 02:08:04,VALID,1003.64,VALID,0,VALID,90.7989,VALID,0.100563,VALID,23.6044,VALID,284,VALID,0.182422,
2010-01-26, 02:09:04,VALID,1003.62,VALID,0,VALID,90.8905,VALID,0.100563,VALID,23.6257,VALID,279,VALID,0.383984,
2010-01-26, 02:10:04,VALID,1003.62,VALID,0,VALID,91.0125,VALID,0,VALID,23.585,VALID,286,VALID,0.639063,
2010-01-26, 02:11:04,VALID,1003.6,VALID,0,VALID,91.1041,VALID,0,VALID,23.6062,VALID,289,VALID,0.223047,
2010-01-26, 02:12:04,VALID,1003.62,VALID,0,VALID,91.1346,VALID,0,VALID,23.585,VALID,326,VALID,0.487891,
2010-01-26, 02:13:04,VALID,1003.65,VALID,0,VALID,91.1575,VALID,0.100563,VALID,23.585,VALID,333,VALID,0.466797,
2010-01-26, 02:14:04,VALID,1003.63,VALID,0,VALID,91.2338,VALID,0.100563,VALID,23.5655,VALID,351,VALID,0.477734,
2010-01-26, 02:15:04,VALID,1003.65,VALID,0,VALID,91.2109,VALID,0,VALID,23.546,VALID,352,VALID,0.476953,
2010-01-26, 02:16:04,VALID,1003.67,VALID,0,VALID,91.188,VALID,0.100563,VALID,23.5071,VALID,352,VALID,0.266016,
2010-01-26, 02:17:04,VALID,1003.67,VALID,0,VALID,91.2262,VALID,0.100563,VALID,23.4682,VALID,352,VALID,0,
2010-01-26, 02:18:04,VALID,1003.64,VALID,0,VALID,91.3253,VALID,0,VALID,23.47,VALID,351,VALID,0.483594,
2010-01-26, 02:19:04,VALID,1003.67,VALID,0,VALID,91.4474,VALID,0,VALID,23.4293,VALID,352,VALID,0.439844,
2010-01-26, 02:20:04,VALID,1003.66,VALID,0,VALID,91.5618,VALID,0,VALID,23.4098,VALID,351,VALID,0.596875,
2010-01-26, 02:21:04,VALID,1003.67,VALID,0,VALID,91.6686,VALID,0,VALID,23.3904,VALID,349,VALID,0.747266,
2010-01-26, 02:22:04,VALID,1003.63,VALID,0,VALID,91.8059,VALID,0,VALID,23.3709,VALID,336,VALID,0.750781,
2010-01-26, 02:23:04,VALID,1003.62,VALID,0,VALID,91.9051,VALID,0,VALID,23.3709,VALID,346,VALID,0.687109,
2010-01-26, 02:24:04,VALID,1003.63,VALID,0,VALID,91.9814,VALID,0,VALID,23.3514,VALID,349,VALID,0.532422,
2010-01-26, 02:25:04,VALID,1003.63,VALID,0,VALID,92.0424,VALID,0,VALID,23.332,VALID,348,VALID,0.679688,
2010-01-26, 02:26:04,VALID,1003.63,VALID,0,VALID,92.073,VALID,0,VALID,23.3337,VALID,346,VALID,0.766797,
2010-01-26, 02:27:04,VALID,1003.63,VALID,0,VALID,92.1645,VALID,0.100563,VALID,23.3125,VALID,352,VALID,1.00664,
2010-01-26, 02:28:04,VALID,1003.6,VALID,0,VALID,92.2255,VALID,0,VALID,23.332,VALID,342,VALID,0.517187,
2010-01-26, 02:29:04,VALID,1003.6,VALID,0,VALID,92.2637,VALID,0,VALID,23.332,VALID,353,VALID,0.667188,
2010-01-26, 02:30:04,VALID,1003.61,VALID,0,VALID,92.2561,VALID,0.100563,VALID,23.3514,VALID,352,VALID,0.739062,
2010-01-26, 02:31:04,VALID,1003.58,VALID,0,VALID,92.2484,VALID,0,VALID,23.4116,VALID,357,VALID,0.347656,
2010-01-26, 02:32:04,VALID,1003.61,VALID,0,VALID,92.2484,VALID,0,VALID,23.4098,VALID,354,VALID,0.676562,
2010-01-26, 02:33:04,VALID,1003.65,VALID,0,VALID,92.2103,VALID,0,VALID,23.4487,VALID,347,VALID,0.745313,
2010-01-26, 02:34:04,VALID,1003.67,VALID,0,VALID,92.1264,VALID,0,VALID,23.4877,VALID,355,VALID,0.811719,
2010-01-26, 02:35:04,VALID,1003.68,VALID,0,VALID,92.0348,VALID,0.100563,VALID,23.5284,VALID,358,VALID,0.677734,
2010-01-26, 02:36:04,VALID,1003.66,VALID,0,VALID,91.9356,VALID,0.100563,VALID,23.5478,VALID,356,VALID,0.792578,
2010-01-26, 02:37:04,VALID,1003.71,VALID,0,VALID,91.8365,VALID,0.100563,VALID,23.5655,VALID,354,VALID,0.610156,
2010-01-26, 02:38:04,VALID,1003.71,VALID,0,VALID,91.6915,VALID,0,VALID,23.585,VALID,347,VALID,0.516797,
2010-01-26, 02:39:04,VALID,1003.73,VALID,0,VALID,91.5847,VALID,0,VALID,23.585,VALID,359,VALID,0.709766,
2010-01-26, 02:40:04,VALID,1003.71,VALID,0,VALID,91.5313,VALID,0,VALID,23.6239,VALID,356,VALID,0.556641,
2010-01-26, 02:41:04,VALID,1003.7,VALID,0,VALID,91.4474,VALID,0,VALID,23.6434,VALID,343,VALID,0.537109,
2010-01-26, 02:42:04,VALID,1003.72,VALID,0,VALID,91.3711,VALID,0,VALID,23.6841,VALID,350,VALID,0.2375,
2010-01-26, 02:43:04,VALID,1003.69,VALID,0,VALID,91.3024,VALID,0,VALID,23.7035,VALID,350,VALID,0,
2010-01-26, 02:44:04,VALID,1003.68,VALID,0,VALID,91.2414,VALID,0.100563,VALID,23.7017,VALID,350,VALID,0.205078,
2010-01-26, 02:45:04,VALID,1003.66,VALID,0,VALID,91.2338,VALID,0,VALID,23.7407,VALID,352,VALID,0.594531,
2010-01-26, 02:46:04,VALID,1003.65,VALID,0,VALID,91.2033,VALID,0,VALID,23.7601,VALID,339,VALID,0.0839844,
2010-01-26, 02:47:04,VALID,1003.65,VALID,0,VALID,91.1804,VALID,0,VALID,23.8185,VALID,339,VALID,0.166016,
2010-01-26, 02:48:04,VALID,1003.67,VALID,0,VALID,91.1956,VALID,0,VALID,23.8575,VALID,339,VALID,0.533984,
2010-01-26, 02:49:04,VALID,1003.65,VALID,0,VALID,91.0812,VALID,0,VALID,23.8964,VALID,350,VALID,0.194531,
2010-01-26, 02:50:04,VALID,1003.7,VALID,0,VALID,91.0125,VALID,0.100563,VALID,23.9353,VALID,350,VALID,0.0140625,
2010-01-26, 02:51:04,VALID,1003.66,VALID,0,VALID,90.9515,VALID,0,VALID,23.9761,VALID,350,VALID,0.00429688,
2010-01-26, 02:52:04,VALID,1003.69,VALID,0,VALID,90.9439,VALID,0,VALID,23.9742,VALID,350,VALID,0.144531,
2010-01-26, 02:53:04,VALID,1003.7,VALID,0,VALID,90.921,VALID,0,VALID,23.9761,VALID,350,VALID,0,
2010-01-26, 02:54:04,VALID,1003.72,VALID,0,VALID,90.982,VALID,0,VALID,23.9742,VALID,350,VALID,0,
2010-01-26, 02:55:04,VALID,1003.75,VALID,0,VALID,90.982,VALID,0,VALID,23.9955,VALID,350,VALID,0,
2010-01-26, 02:56:04,VALID,1003.73,VALID,0,VALID,90.982,VALID,0,VALID,23.9742,VALID,350,VALID,0.105078,
2010-01-26, 02:57:04,VALID,1003.77,VALID,0,VALID,90.982,VALID,0,VALID,23.9742,VALID,350,VALID,0.0539063,
2010-01-26, 02:58:04,VALID,1003.75,VALID,0,VALID,90.9744,VALID,0,VALID,23.9937,VALID,350,VALID,0.244922,
2010-01-26, 02:59:04,VALID,1003.78,VALID,0,VALID,90.9668,VALID,0,VALID,23.9937,VALID,350,VALID,0.00859375,
2010-01-26, 03:00:04,VALID,1003.81,VALID,0,VALID,91.0049,VALID,0,VALID,23.9937,VALID,342,VALID,0.224609,
2010-01-26, 03:01:04,VALID,1003.79,VALID,0,VALID,91.0202,VALID,0,VALID,23.9937,VALID,333,VALID,0.116016,
2010-01-26, 03:02:04,VALID,1003.8,VALID,0,VALID,91.0431,VALID,0,VALID,24.0326,VALID,333,VALID,0.297656,
2010-01-26, 03:03:04,VALID,1003.81,VALID,0,VALID,90.9973,VALID,0,VALID,24.0734,VALID,297,VALID,0.758203,
2010-01-26, 03:04:04,VALID,1003.77,VALID,0,VALID,90.9591,VALID,0,VALID,24.0716,VALID,298,VALID,0.406641,
2010-01-26, 03:05:04,VALID,1003.79,VALID,0,VALID,91.0202,VALID,0,VALID,24.1123,VALID,302,VALID,0.413281,
2010-01-26, 03:06:04,VALID,1003.78,VALID,0,VALID,91.0125,VALID,0.100563,VALID,24.091,VALID,325,VALID,0.114063,
2010-01-26, 03:07:04,VALID,1003.78,VALID,0,VALID,91.0431,VALID,0,VALID,24.0716,VALID,325,VALID,0.0785156,
2010-01-26, 03:08:04,VALID,1003.81,VALID,0,VALID,91.1193,VALID,0,VALID,24.0716,VALID,305,VALID,0.237891,
2010-01-26, 03:09:04,VALID,1003.81,VALID,0,VALID,91.1804,VALID,0,VALID,24.091,VALID,305,VALID,0,
2010-01-26, 03:10:04,VALID,1003.84,VALID,0,VALID,91.2262,VALID,0,VALID,24.0929,VALID,305,VALID,0,
2010-01-26, 03:11:04,VALID,1003.8,VALID,0,VALID,91.1956,VALID,0,VALID,24.0734,VALID,305,VALID,0.321094,
2010-01-26, 03:12:04,VALID,1003.81,VALID,0,VALID,91.1956,VALID,0,VALID,24.0521,VALID,305,VALID,0.00625,
2010-01-26, 03:13:04,VALID,1003.81,VALID,0.5,VALID,91.2338,VALID,0,VALID,24.0521,VALID,305,VALID,0,
2010-01-26, 03:14:04,VALID,1003.81,VALID,0,VALID,91.2643,VALID,0,VALID,24.0326,VALID,305,VALID,0.177344,
2010-01-26, 03:15:04,VALID,1003.8,VALID,0,VALID,91.3101,VALID,0,VALID,24.0345,VALID,305,VALID,0.172266,
2010-01-26, 03:16:04,VALID,1003.78,VALID,0,VALID,91.3711,VALID,0,VALID,24.0345,VALID,305,VALID,0,
2010-01-26, 03:17:04,VALID,1003.81,VALID,0,VALID,91.4626,VALID,0,VALID,23.9742,VALID,305,VALID,0,
2010-01-26, 03:18:04,VALID,1003.82,VALID,0,VALID,91.5695,VALID,0,VALID,23.9353,VALID,305,VALID,0,
2010-01-26, 03:19:04,VALID,1003.8,VALID,0,VALID,91.7373,VALID,0.100563,VALID,23.9159,VALID,305,VALID,0.524609,
2010-01-26, 03:20:04,VALID,1003.82,VALID,0,VALID,91.867,VALID,0,VALID,23.8982,VALID,305,VALID,0.314063,
2010-01-26, 03:21:04,VALID,1003.81,VALID,0,VALID,92.0043,VALID,0,VALID,23.8787,VALID,305,VALID,0.189844,
2010-01-26, 03:22:04,VALID,1003.87,VALID,0,VALID,92.1035,VALID,0,VALID,23.8575,VALID,305,VALID,0.0875,
2010-01-26, 03:23:04,VALID,1003.87,VALID,0,VALID,92.195,VALID,0,VALID,23.8593,VALID,305,VALID,0,
2010-01-26, 03:24:04,VALID,1003.86,VALID,0,VALID,92.2789,VALID,0,VALID,23.8398,VALID,305,VALID,0,
2010-01-26, 03:25:04,VALID,1003.86,VALID,0,VALID,92.3247,VALID,0,VALID,23.8185,VALID,305,VALID,0.0113281,
2010-01-26, 03:26:04,VALID,1003.81,VALID,0,VALID,92.3781,VALID,0,VALID,23.8185,VALID,305,VALID,0.216797,
2010-01-26, 03:27:04,VALID,1003.83,VALID,0,VALID,92.4239,VALID,0,VALID,23.8185,VALID,305,VALID,0.278516,
2010-01-26, 03:28:04,VALID,1003.83,VALID,0,VALID,92.462,VALID,0,VALID,23.8185,VALID,305,VALID,0.234375,
2010-01-26, 03:29:04,VALID,1003.82,VALID,0,VALID,92.5231,VALID,0.100563,VALID,23.8398,VALID,305,VALID,0.084375,
2010-01-26, 03:30:04,VALID,1003.79,VALID,0,VALID,92.5765,VALID,0,VALID,23.8185,VALID,305,VALID,0.259375,
2010-01-26, 03:31:04,VALID,1003.77,VALID,0,VALID,92.607,VALID,0,VALID,23.7991,VALID,305,VALID,0.189063,
2010-01-26, 03:32:04,VALID,1003.81,VALID,0,VALID,92.6528,VALID,0,VALID,23.7991,VALID,305,VALID,0,
2010-01-26, 03:33:04,VALID,1003.79,VALID,0,VALID,92.6985,VALID,0,VALID,23.8203,VALID,305,VALID,0,
2010-01-26, 03:34:04,VALID,1003.8,VALID,0,VALID,92.7138,VALID,0,VALID,23.7991,VALID,305,VALID,0.132031,
2010-01-26, 03:35:04,VALID,1003.82,VALID,0,VALID,92.7443,VALID,0,VALID,23.7991,VALID,305,VALID,0.0386719,
2010-01-26, 03:36:04,VALID,1003.8,VALID,0,VALID,92.7748,VALID,0,VALID,23.838,VALID,325,VALID,0.311328,
2010-01-26, 03:37:04,VALID,1003.83,VALID,0,VALID,92.7824,VALID,0.100563,VALID,23.8982,VALID,332,VALID,0.396875,
2010-01-26, 03:38:04,VALID,1003.83,VALID,0,VALID,92.7824,VALID,0,VALID,23.9159,VALID,348,VALID,0.682031,
2010-01-26, 03:39:04,VALID,1003.81,VALID,0,VALID,92.7596,VALID,0,VALID,23.9566,VALID,354,VALID,0.364062,
2010-01-26, 03:40:04,VALID,1003.81,VALID,0,VALID,92.7367,VALID,0.100563,VALID,23.9937,VALID,354,VALID,0.40625,
2010-01-26, 03:41:04,VALID,1003.81,VALID,0,VALID,92.6604,VALID,0,VALID,24.0539,VALID,353,VALID,0.369141,
2010-01-26, 03:42:04,VALID,1003.81,VALID,0,VALID,92.546,VALID,0.100563,VALID,24.0734,VALID,348,VALID,0.416797,
2010-01-26, 03:43:04,VALID,1003.8,VALID,0,VALID,92.4239,VALID,0,VALID,24.0929,VALID,341,VALID,0.648047,
2010-01-26, 03:44:04,VALID,1003.82,VALID,0,VALID,92.2942,VALID,0,VALID,24.0929,VALID,344,VALID,0.408203,
2010-01-26, 03:45:04,VALID,1003.87,VALID,0,VALID,92.1645,VALID,0,VALID,24.1513,VALID,340,VALID,0.300391,
2010-01-26, 03:46:04,VALID,1003.85,VALID,0,VALID,92.0577,VALID,0.100563,VALID,24.1494,VALID,5,VALID,0.676953,